• In Uzbekistan
  • List of Countries
  • For 7 days
  • Water Temperature
  • Weather Map
  • Weather Widgets
  • user-avatar
    Login

    Hourly Weather Buenos Aires

    Today, 21 September, Saturday

    Time Temperature Precipitation Wind Pressure Humidity
    00:00 +12°C° 0 mm 4 mps 764 mmHg 39%
    01:00 +12°C° 0 mm 4 mps 764 mmHg 39%
    02:00 +11°C° 0 mm 3 mps 764 mmHg 38%
    03:00 +11°C° 0 mm 4 mps 764 mmHg 38%
    04:00 +11°C° 0 mm 4 mps 764 mmHg 37%
    05:00 +11°C° 0 mm 4 mps 764 mmHg 37%
    06:00 +12°C° 0 mm 5 mps 764 mmHg 35%
    07:00 +13°C° 0 mm 5 mps 764 mmHg 34%
    08:00 +14°C° 0 mm 6 mps 764 mmHg 33%
    09:00 +16°C° 0 mm 6 mps 764 mmHg 31%
    10:00 +19°C° 0 mm 6 mps 764 mmHg 29%
    11:00 +21°C° 0 mm 6 mps 764 mmHg 27%
    12:00 +21°C° 0 mm 6 mps 764 mmHg 27%
    13:00 +22°C° 0 mm 6 mps 763 mmHg 27%
    14:00 +23°C° 0 mm 6 mps 763 mmHg 27%
    15:00 +22°C° 0 mm 5 mps 763 mmHg 30%
    16:00 +22°C° 0 mm 5 mps 763 mmHg 34%
    17:00 +21°C° 0 mm 4 mps 763 mmHg 37%
    18:00 +20°C° 0 mm 4 mps 764 mmHg 38%
    19:00 +19°C° 0 mm 3 mps 764 mmHg 40%
    20:00 +17°C° 0 mm 3 mps 765 mmHg 41%
    21:00 +17°C° 0 mm 3 mps 766 mmHg 42%
    22:00 +15°C° 0 mm 4 mps 766 mmHg 43%
    23:00 +14°C° 0 mm 4 mps 767 mmHg 44%

    Tomorrow, 22 September, Sunday

    Time Temperature Precipitation Wind Pressure Humidity
    00:00 +14°C° 0 mm 4 mps 767 mmHg 47%
    01:00 +13°C° 0 mm 5 mps 767 mmHg 50%
    02:00 +12°C° 0 mm 5 mps 768 mmHg 53%
    03:00 +12°C° 0 mm 5 mps 768 mmHg 52%
    04:00 +10°C° 0 mm 5 mps 769 mmHg 50%
    05:00 +11°C° 0 mm 4 mps 769 mmHg 49%
    06:00 +11°C° 0 mm 4 mps 770 mmHg 45%
    07:00 +12°C° 0 mm 4 mps 770 mmHg 41%
    08:00 +12°C° 0 mm 4 mps 771 mmHg 37%
    09:00 +14°C° 0 mm 4 mps 771 mmHg 34%
    10:00 +17°C° 0 mm 4 mps 771 mmHg 31%
    11:00 +18°C° 0 mm 4 mps 771 mmHg 28%
    12:00 +18°C° 0 mm 4 mps 771 mmHg 29%
    13:00 +19°C° 0 mm 4 mps 770 mmHg 29%
    14:00 +19°C° 0 mm 4 mps 770 mmHg 30%
    15:00 +17°C° 0 mm 5 mps 770 mmHg 32%
    16:00 +16°C° 0 mm 5 mps 770 mmHg 35%
    17:00 +16°C° 0 mm 5 mps 769 mmHg 37%
    18:00 +15°C° 0 mm 6 mps 770 mmHg 43%
    19:00 +14°C° 0 mm 6 mps 770 mmHg 49%
    20:00 +13°C° 0 mm 6 mps 770 mmHg 56%
    21:00 +13°C° 0 mm 6 mps 770 mmHg 58%
    22:00 +13°C° 0 mm 6 mps 770 mmHg 61%
    23:00 +13°C° 0 mm 6 mps 770 mmHg 64%

    Day after tomorrow, 23 September, Monday

    Time Temperature Precipitation Wind Pressure Humidity
    00:00 +11°C° 0 mm 6 mps 769 mmHg 64%
    01:00 +11°C° 0 mm 6 mps 769 mmHg 64%
    02:00 +11°C° 0 mm 6 mps 769 mmHg 64%
    03:00 +10°C° 0 mm 6 mps 769 mmHg 64%
    04:00 +10°C° 0 mm 6 mps 769 mmHg 65%
    05:00 +9°C° 0 mm 6 mps 769 mmHg 66%
    06:00 +10°C° 0 mm 6 mps 769 mmHg 60%
    07:00 +12°C° 0 mm 5 mps 769 mmHg 54%
    08:00 +12°C° 0 mm 5 mps 769 mmHg 48%
    09:00 +14°C° 0 mm 5 mps 769 mmHg 42%
    10:00 +15°C° 0 mm 4 mps 769 mmHg 35%
    11:00 +18°C° 0 mm 4 mps 769 mmHg 29%
    12:00 +19°C° 0 mm 4 mps 768 mmHg 28%
    13:00 +20°C° 0 mm 3 mps 767 mmHg 27%
    14:00 +21°C° 0 mm 3 mps 767 mmHg 26%
    15:00 +20°C° 0 mm 3 mps 766 mmHg 29%
    16:00 +20°C° 0 mm 3 mps 766 mmHg 31%
    17:00 +19°C° 0 mm 3 mps 766 mmHg 33%
    18:00 +18°C° 0 mm 3 mps 766 mmHg 40%
    19:00 +17°C° 0 mm 3 mps 767 mmHg 47%
    20:00 +16°C° 0 mm 3 mps 767 mmHg 54%
    21:00 +16°C° 0 mm 3 mps 767 mmHg 59%
    22:00 +15°C° 0 mm 2 mps 767 mmHg 65%
    23:00 +15°C° 0 mm 2 mps 767 mmHg 70%

    24 September, Tuesday

    Time Temperature Precipitation Wind Pressure Humidity
    00:00 +14°C° 0 mm 2 mps 767 mmHg 71%
    01:00 +14°C° 0 mm 2 mps 767 mmHg 71%
    02:00 +13°C° 0 mm 3 mps 767 mmHg 72%
    03:00 +12°C° 0 mm 3 mps 767 mmHg 73%
    04:00 +13°C° 0 mm 2 mps 767 mmHg 74%
    05:00 +13°C° 0 mm 2 mps 767 mmHg 76%
    06:00 +14°C° 0 mm 2 mps 767 mmHg 70%
    07:00 +15°C° 0 mm 2 mps 767 mmHg 64%
    08:00 +16°C° 0 mm 2 mps 767 mmHg 58%
    09:00 +18°C° 0 mm 2 mps 767 mmHg 51%
    10:00 +21°C° 0 mm 2 mps 767 mmHg 43%
    11:00 +24°C° 0 mm 2 mps 767 mmHg 35%
    12:00 +25°C° 0 mm 2 mps 766 mmHg 36%
    13:00 +25°C° 0 mm 2 mps 766 mmHg 36%
    14:00 +26°C° 0 mm 2 mps 765 mmHg 37%
    15:00 +25°C° 0 mm 2 mps 765 mmHg 39%
    16:00 +25°C° 0 mm 2 mps 765 mmHg 42%
    17:00 +24°C° 0 mm 1 mps 765 mmHg 44%
    18:00 +23°C° 0 mm 1 mps 765 mmHg 48%
    19:00 +22°C° 0 mm 1 mps 766 mmHg 51%
    20:00 +20°C° 0 mm 1 mps 766 mmHg 54%
    21:00 +20°C° 0 mm 1 mps 766 mmHg 57%
    22:00 +18°C° 0 mm 2 mps 766 mmHg 59%
    23:00 +18°C° 0 mm 2 mps 766 mmHg 61%

    25 September, Wednesday

    Time Temperature Precipitation Wind Pressure Humidity
    00:00 +17°C° 0 mm 2 mps 766 mmHg 63%
    01:00 +17°C° 0 mm 2 mps 766 mmHg 65%
    02:00 +16°C° 0 mm 2 mps 766 mmHg 67%
    03:00 +16°C° 0 mm 2 mps 766 mmHg 68%
    04:00 +16°C° 0 mm 2 mps 766 mmHg 69%
    05:00 +15°C° 0 mm 2 mps 766 mmHg 70%
    06:00 +17°C° 0 mm 2 mps 766 mmHg 64%
    07:00 +18°C° 0 mm 2 mps 766 mmHg 59%
    08:00 +20°C° 0 mm 1 mps 766 mmHg 53%
    09:00 +22°C° 0 mm 1 mps 766 mmHg 46%
    10:00 +25°C° 0 mm 1 mps 766 mmHg 39%
    11:00 +25°C° 0 mm 0 mps 766 mmHg 32%
    12:00 +27°C° 0 mm 1 mps 766 mmHg 31%
    13:00 +28°C° 0 mm 1 mps 766 mmHg 29%
    14:00 +29°C° 0 mm 2 mps 765 mmHg 28%
    15:00 +28°C° 0 mm 2 mps 765 mmHg 30%
    16:00 +27°C° 0 mm 2 mps 765 mmHg 33%
    17:00 +26°C° 0 mm 3 mps 765 mmHg 36%
    18:00 +25°C° 0 mm 3 mps 765 mmHg 39%
    19:00 +22°C° 0 mm 3 mps 765 mmHg 41%
    20:00 +21°C° 0 mm 4 mps 766 mmHg 44%
    21:00 +20°C° 0 mm 4 mps 765 mmHg 51%
    22:00 +19°C° 0 mm 4 mps 765 mmHg 57%
    23:00 +19°C° 0 mm 4 mps 765 mmHg 63%

    26 September, Thursday

    Time Temperature Precipitation Wind Pressure Humidity
    00:00 +18°C° 0 mm 3 mps 765 mmHg 64%
    01:00 +18°C° 0 mm 3 mps 765 mmHg 66%
    02:00 +17°C° 0 mm 2 mps 765 mmHg 67%
    03:00 +17°C° 0 mm 2 mps 765 mmHg 68%
    04:00 +17°C° 0 mm 2 mps 765 mmHg 68%
    05:00 +16°C° 0 mm 2 mps 765 mmHg 69%
    06:00 +17°C° 0 mm 2 mps 765 mmHg 66%
    07:00 +18°C° 0 mm 2 mps 765 mmHg 63%
    08:00 +19°C° 0 mm 2 mps 765 mmHg 59%
    09:00 +21°C° 0 mm 2 mps 765 mmHg 53%
    10:00 +23°C° 0 mm 2 mps 765 mmHg 46%
    11:00 +25°C° 0 mm 3 mps 765 mmHg 39%
    12:00 +25°C° 0 mm 3 mps 764 mmHg 38%
    13:00 +25°C° 0 mm 4 mps 764 mmHg 36%
    14:00 +25°C° 0 mm 4 mps 763 mmHg 34%
    15:00 +25°C° 0 mm 5 mps 763 mmHg 38%
    16:00 +23°C° 0 mm 5 mps 762 mmHg 41%
    17:00 +22°C° 0 mm 5 mps 762 mmHg 44%
    18:00 +21°C° 0 mm 6 mps 762 mmHg 49%
    19:00 +20°C° 0 mm 6 mps 762 mmHg 55%
    20:00 +19°C° 0 mm 6 mps 762 mmHg 61%
    21:00 +19°C° 0 mm 6 mps 762 mmHg 64%
    22:00 +17°C° 0 mm 6 mps 762 mmHg 66%
    23:00 +17°C° 0 mm 6 mps 762 mmHg 69%
    Show more